This is the latest recevied weather packets stored in our database for station/object ENMS. If no packets are shown the sender has not sent any weather packets the latest 10 day(s).
| Time | Temp. | Humidity | Pressure | Rain* | Wind** | Luminosity | Snow |
|---|---|---|---|---|---|---|---|
| 1778119387 | 0.56° C | 93% | 1013 hPa | - | - | - | - |
| 1778117587 | 0.56° C | 93% | 1013 hPa | - | - | - | - |
| 1778115787 | 0.56° C | 93% | 1012 hPa | - | - | - | - |
| 1778113987 | 0.56° C | 93% | 1012 hPa | - | - | - | - |
| 1778112187 | 0.56° C | 93% | 1012 hPa | - | - | - | - |
| 1778110387 | 0.56° C | 86% | 1012 hPa | - | - | - | - |
| 1778108587 | 0.56° C | 93% | 1012 hPa | - | - | - | - |
| 1778106787 | 0.56° C | 86% | 1012 hPa | - | - | - | - |
| 1778104987 | 0.56° C | 93% | 1012 hPa | - | - | - | - |
| 1778103188 | 1.67° C | 86% | 1012 hPa | - | - | - | - |
| 1778101387 | 1.67° C | 86% | 1012 hPa | - | - | - | - |
| 1778099586 | 1.67° C | 86% | 1011 hPa | - | - | - | - |
| 1778097786 | 2.78° C | 80% | 1011 hPa | - | - | - | - |
| 1778095987 | 2.78° C | 86% | 1011 hPa | - | - | - | - |
| 1778094187 | 3.89° C | 80% | 1011 hPa | - | - | - | - |
| 1778092387 | 3.89° C | 75% | 1011 hPa | - | - | - | - |
| 1778090587 | 5° C | 70% | 1011 hPa | - | - | - | - |
| 1778088788 | 5° C | 70% | 1011 hPa | - | - | - | - |
| 1778086987 | 5° C | 75% | 1010 hPa | - | - | - | - |
| 1778085188 | 5° C | 80% | 1010 hPa | - | - | - | - |
| 1778083387 | 5° C | 75% | 1010 hPa | - | - | - | - |
| 1778081587 | 3.89° C | 80% | 1010 hPa | - | - | - | - |
| 1778079787 | 2.78° C | 86% | 1010 hPa | - | - | - | - |
| 1778077988 | 5° C | 70% | 1010 hPa | - | - | - | - |
| 1778076187 | 5° C | 70% | 1010 hPa | - | - | - | - |
* Rain since midnight (hover to see other rain measurements)
** Current wind speed in m/s (hover to see current wind gust speed)